Mono Hot Springs, CA (93642)

4:01 AM PDT on September 03, 2015 (GMT -0700)
Mammoth Yosemite | | Change Station
CLOSE
Current Station
Airport
Location: Mammoth,
Elevation: 7129 ft
Nearby Weather Stations

Elev 7129 ft 37.62 °N, 118.84 °W | Updated 6 minutes ago

Clear
Clear
54 °F
Feels Like 54 °F
N
12
Wind Variable Wind from SSW
Gusts 20 mph

Today
High -- | Low -- °F
--% Chance of Precip.
Yesterday
High -- | Low -- °F
Precip. -- in
6:28 AM 7:22 PM
Waning Gibbous, 71% visible
Pressure 30.08 in
Visibility 10.0 miles
Clouds Clear
Dew Point 30 °F
Humidity 41%
Rainfall 0.00 in
Snow Depth Not available.
UV 0 out of 12
Pollen 8.80 out of 12
Air Quality Not available.
Flu Activity Not available.
METAR KMMH 031055Z AUTO 20010G17KT 160V230 10SM CLR 12/M01 A3008 RMK AO1
Pressure 30.08 in
Visibility 10.0 miles
Clouds Clear
Dew Point 30 °F
Humidity 41%
Rainfall 0.00 in
Snow Depth Not available.
UV 0 out of 12
Pollen 8.80 out of 12
Air Quality Not available.
Flu Activity Not available.
METAR KMMH 031055Z AUTO 20010G17KT 160V230 10SM CLR 12/M01 A3008 RMK AO1

10-Day Weather Forecast

×

Almanac

Astronomy

Sep. 03, 2015 Rise Set
Actual Time
Civil Twilight
Nautical Twilight
Astronomical Twilight
Moon
Length of Visible Light
Length of Day
Tomorrow will be .
, % of the Moon is Illuminated

Today's Extremes

State Highs State Lows

Community

WunderPhotos

Upload Photos

1,851,933 photos uploaded!

WunderBlogs® & News

Nearby

Air Quality

  Air Quality AQ Index Pollutant
Not available.

Snow Depth

Station Depth Elevation

Earthquake Activity

City Distance Mag. Time & Date
Minimum magnitude displayed is 2.5.

Coastal Water Temperatures

Place Temperature

Stations

Nearby Weather Stations

Station Location Temp. Windchill Dew Point Humidity Wind Precip. Elev Updated Type